Radiation Dose at Monitoring Post of Fukushima Daini Nuclear Power Station
Date,Time,MP-1(microSv/h),MP-2(microSv/h),MP-3(microSv/h),MP-4(microSv/h),MP-5(microSv/h),MP-6(microSv/h),MP-7(microSv/h),Wind Direction,Wind Velocity(m/s),Rain
2015/12/07,00:00,0.463,0.270,0.489,0.441,0.424,0.224,0.197,northwest,6.0,No
2015/12/07,00:10,0.461,0.271,0.489,0.442,0.423,0.224,0.197,northwest,7.0,No
2015/12/07,00:20,0.462,0.270,0.489,0.444,0.423,0.224,0.196,northwest,7.3,No
2015/12/07,00:30,0.462,0.270,0.489,0.442,0.422,0.224,0.198,northwest,7.4,No
2015/12/07,00:40,0.462,0.270,0.488,0.440,0.422,0.223,0.195,northwest,7.3,No
2015/12/07,00:50,0.461,0.269,0.488,0.444,0.423,0.224,0.197,northwest,7.3,No
2015/12/07,01:00,0.462,0.270,0.490,0.443,0.422,0.223,0.196,northwest,8.7,No
2015/12/07,01:10,0.463,0.272,0.490,0.440,0.421,0.224,0.196,northwest,7.0,No
2015/12/07,01:20,0.461,0.269,0.488,0.442,0.422,0.222,0.195,northwest,7.5,No
2015/12/07,01:30,0.461,0.270,0.488,0.443,0.424,0.224,0.196,west-northwest,6.4,No
2015/12/07,01:40,0.461,0.270,0.488,0.441,0.422,0.223,0.196,west-northwest,5.9,No
2015/12/07,01:50,0.462,0.270,0.486,0.442,0.422,0.224,0.196,west-northwest,4.1,No
2015/12/07,02:00,0.459,0.269,0.488,0.442,0.424,0.225,0.197,west-northwest,5.3,No
2015/12/07,02:10,0.461,0.270,0.489,0.443,0.423,0.225,0.196,west-northwest,5.6,No
2015/12/07,02:20,0.463,0.271,0.488,0.443,0.422,0.223,0.196,northwest,5.8,No
2015/12/07,02:30,0.460,0.270,0.489,0.441,0.421,0.222,0.197,west-northwest,7.6,No
2015/12/07,02:40,0.461,0.270,0.490,0.443,0.422,0.224,0.196,west-northwest,8.1,No
2015/12/07,02:50,0.463,0.271,0.488,0.443,0.422,0.223,0.197,west-northwest,7.1,No
2015/12/07,03:00,0.461,0.271,0.489,0.440,0.422,0.224,0.197,west-northwest,8.1,No
2015/12/07,03:10,0.460,0.270,0.488,0.442,0.422,0.223,0.197,west-northwest,7.5,No
2015/12/07,03:20,0.462,0.270,0.487,0.443,0.425,0.224,0.196,west-northwest,7.8,No
2015/12/07,03:30,0.463,0.270,0.488,0.442,0.423,0.222,0.196,northwest,6.7,No
2015/12/07,03:40,0.459,0.270,0.489,0.443,0.422,0.224,0.197,northwest,4.9,No
2015/12/07,03:50,0.463,0.270,0.488,0.443,0.424,0.224,0.196,west-northwest,4.3,No
2015/12/07,04:00,0.463,0.271,0.488,0.442,0.424,0.223,0.196,northwest,3.7,No
2015/12/07,04:10,0.460,0.271,0.487,0.441,0.422,0.223,0.197,northwest,2.1,No
2015/12/07,04:20,0.462,0.270,0.488,0.443,0.423,0.224,0.196,north-northwest,3.2,No
2015/12/07,04:30,0.463,0.271,0.486,0.443,0.424,0.224,0.195,north-northwest,5.1,No
2015/12/07,04:40,0.460,0.270,0.490,0.440,0.423,0.224,0.196,northwest,5.4,No
2015/12/07,04:50,0.460,0.270,0.490,0.442,0.421,0.224,0.196,north-northwest,4.0,No
2015/12/07,05:00,0.462,0.268,0.488,0.444,0.422,0.223,0.197,north,3.0,No
2015/12/07,05:10,0.462,0.269,0.489,0.442,0.423,0.224,0.197,north-northwest,2.7,No
2015/12/07,05:20,0.462,0.270,0.490,0.442,0.422,0.224,0.197,north-northwest,3.2,No
2015/12/07,05:30,0.463,0.271,0.488,0.444,0.423,0.224,0.198,north-northwest,3.1,No
2015/12/07,05:40,0.461,0.270,0.488,0.442,0.423,0.222,0.197,northwest,3.3,No
2015/12/07,05:50,0.460,0.269,0.490,0.442,0.422,0.225,0.196,northwest,3.5,No
2015/12/07,06:00,0.462,0.270,0.489,0.441,0.422,0.224,0.196,north-northwest,2.5,No
2015/12/07,06:10,0.461,0.270,0.489,0.442,0.422,0.226,0.197,north-northwest,1.9,No
2015/12/07,06:20,0.461,0.271,0.491,0.441,0.424,0.222,0.196,north,1.1,No
2015/12/07,06:30,0.461,0.271,0.490,0.442,0.423,0.224,0.196,north,1.8,No
2015/12/07,06:40,0.462,0.270,0.488,0.442,0.423,0.225,0.197,north-northwest,2.1,No
2015/12/07,06:50,0.463,0.271,0.489,0.443,0.422,0.224,0.196,north-northwest,1.6,No
2015/12/07,07:00,0.460,0.270,0.489,0.440,0.423,0.224,0.197,west-northwest,1.7,No
2015/12/07,07:10,0.462,0.270,0.488,0.442,0.422,0.224,0.197,north,0.9,No
2015/12/07,07:20,0.462,0.270,0.487,0.442,0.422,0.224,0.197,-,CALM,No
2015/12/07,07:30,0.461,0.269,0.490,0.443,0.423,0.225,0.196,southwest,1.1,No
2015/12/07,07:40,0.461,0.272,0.489,0.441,0.422,0.224,0.197,south-southwest,0.9,No
2015/12/07,07:50,0.462,0.271,0.489,0.441,0.422,0.223,0.197,south-southwest,1.5,No
2015/12/07,08:00,0.463,0.269,0.488,0.443,0.420,0.223,0.196,-,CALM,No
2015/12/07,08:10,0.460,0.270,0.490,0.440,0.423,0.222,0.196,-,CALM,No
2015/12/07,08:20,0.461,0.270,0.490,0.440,0.423,0.223,0.197,north-northwest,1.5,No
2015/12/07,08:30,0.462,0.270,0.488,0.442,0.421,0.223,0.196,northwest,0.6,No
2015/12/07,08:40,0.461,0.271,0.489,0.439,0.423,0.223,0.195,north-northwest,2.3,No
2015/12/07,08:50,0.460,0.270,0.489,0.443,0.423,0.224,0.196,north-northwest,2.7,No
2015/12/07,09:00,0.464,0.270,0.489,0.439,0.421,0.224,0.195,north,2.7,No
2015/12/07,09:10,0.462,0.270,0.488,0.440,0.423,0.225,0.197,north,2.1,No
2015/12/07,09:20,0.461,0.270,0.491,0.442,0.424,0.224,0.196,north-northeast,3.1,No
2015/12/07,09:30,0.463,0.270,0.487,0.439,0.421,0.225,0.196,north,3.0,No
2015/12/07,09:40,0.461,0.270,0.489,0.442,0.422,0.224,0.195,north,3.4,No
2015/12/07,09:50,0.460,0.269,0.489,0.440,0.422,0.224,0.196,north-northwest,2.5,No
2015/12/07,10:00,0.462,0.268,0.487,0.443,0.421,0.224,0.196,northwest,2.6,No
2015/12/07,10:10,0.461,0.269,0.489,0.439,0.421,0.224,0.196,northwest,4.0,No
2015/12/07,10:20,0.461,0.269,0.488,0.443,0.421,0.224,0.196,northwest,1.9,No
2015/12/07,10:30,0.457,0.270,0.487,0.440,0.423,0.224,0.195,northwest,3.3,No
2015/12/07,10:40,0.462,0.270,0.488,0.443,0.419,0.224,0.196,west-northwest,3.6,No
2015/12/07,10:50,0.458,0.269,0.488,0.439,0.422,0.225,0.196,west-northwest,3.2,No
2015/12/07,11:00,0.459,0.270,0.488,0.443,0.421,0.224,0.196,west-northwest,4.7,No
2015/12/07,11:10,0.460,0.270,0.490,0.440,0.424,0.223,0.197,north,4.7,No
2015/12/07,11:20,0.461,0.271,0.485,0.443,0.422,0.225,0.196,northeast,4.0,No
2015/12/07,11:30,0.463,0.270,0.491,0.440,0.423,0.224,0.197,east-northeast,3.0,No
2015/12/07,11:40,0.459,0.272,0.484,0.443,0.423,0.224,0.196,east-northeast,2.4,No
2015/12/07,11:50,0.462,0.270,0.489,0.441,0.424,0.224,0.196,east-northeast,3.0,No
2015/12/07,12:00,0.457,0.271,0.485,0.442,0.422,0.224,0.196,northeast,2.9,No
2015/12/07,12:10,0.460,0.269,0.488,0.439,0.423,0.225,0.197,northeast,3.3,No
2015/12/07,12:20,0.459,0.271,0.483,0.442,0.425,0.225,0.196,northeast,3.6,No
2015/12/07,12:30,0.462,0.270,0.488,0.438,0.425,0.225,0.197,east,3.0,No
2015/12/07,12:40,0.460,0.271,0.485,0.444,0.423,0.225,0.196,northeast,3.2,No
2015/12/07,12:50,0.464,0.271,0.487,0.440,0.425,0.224,0.197,northeast,3.7,No
2015/12/07,13:00,0.461,0.271,0.490,0.443,0.425,0.225,0.195,northeast,2.6,No
2015/12/07,13:10,0.461,0.271,0.485,0.441,0.427,0.225,0.196,northeast,3.6,No
2015/12/07,13:20,0.459,0.269,0.488,0.444,0.427,0.225,0.196,east-northeast,3.6,No
2015/12/07,13:30,0.460,0.272,0.486,0.442,0.424,0.224,0.196,east-northeast,3.0,No
2015/12/07,13:40,0.463,0.270,0.490,0.445,0.424,0.224,0.196,east-northeast,1.5,No
2015/12/07,13:50,0.461,0.272,0.486,0.440,0.423,0.225,0.195,east,1.3,No
2015/12/07,14:00,0.463,0.270,0.490,0.443,0.424,0.224,0.198,east,2.0,No
2015/12/07,14:10,0.460,0.271,0.490,0.441,0.422,0.223,0.197,east-northeast,2.0,No
2015/12/07,14:20,0.461,0.270,0.492,0.446,0.423,0.224,0.197,east,0.8,No
2015/12/07,14:30,0.463,0.272,0.490,0.441,0.423,0.224,0.197,northeast,0.8,No
2015/12/07,14:40,0.460,0.269,0.488,0.445,0.423,0.222,0.197,-,CALM,No
2015/12/07,14:50,0.463,0.271,0.491,0.440,0.421,0.224,0.197,south-southwest,0.9,No
2015/12/07,15:00,0.461,0.271,0.488,0.445,0.424,0.222,0.197,south-southwest,1.1,No
2015/12/07,15:10,0.462,0.271,0.490,0.442,0.422,0.225,0.197,south,2.1,No
2015/12/07,15:20,0.462,0.271,0.488,0.442,0.425,0.222,0.197,south,2.6,No
2015/12/07,15:30,0.463,0.271,0.490,0.444,0.423,0.224,0.197,south,2.2,No
2015/12/07,15:40,0.461,0.271,0.489,0.441,0.423,0.223,0.196,south,2.6,No
2015/12/07,15:50,0.460,0.272,0.486,0.445,0.423,0.225,0.197,south,2.0,No
2015/12/07,16:00,0.459,0.271,0.491,0.442,0.424,0.223,0.198,south,2.5,No
2015/12/07,16:10,0.463,0.271,0.489,0.443,0.423,0.223,0.198,southwest,2.1,No
2015/12/07,16:20,0.463,0.272,0.488,0.443,0.425,0.224,0.197,west-southwest,2.3,No
2015/12/07,16:30,0.461,0.272,0.491,0.444,0.423,0.223,0.197,west-southwest,2.5,No
2015/12/07,16:40,0.463,0.271,0.488,0.443,0.424,0.224,0.199,west-southwest,2.4,No
2015/12/07,16:50,0.463,0.271,0.489,0.444,0.425,0.224,0.197,west-southwest,2.4,No
2015/12/07,17:00,0.461,0.272,0.490,0.443,0.424,0.223,0.196,west-northwest,1.9,No
2015/12/07,17:10,0.462,0.270,0.487,0.443,0.426,0.224,0.197,north-northwest,3.4,No
2015/12/07,17:20,0.464,0.270,0.491,0.443,0.423,0.225,0.197,north,6.2,No
2015/12/07,17:30,0.460,0.271,0.491,0.444,0.422,0.224,0.198,north,5.2,No
2015/12/07,17:40,0.461,0.271,0.489,0.443,0.421,0.224,0.198,north,3.4,No
2015/12/07,17:50,0.463,0.272,0.489,0.443,0.424,0.223,0.197,north,3.6,No
2015/12/07,18:00,0.462,0.271,0.491,0.444,0.425,0.224,0.197,north-northwest,2.3,No
2015/12/07,18:10,0.463,0.272,0.487,0.445,0.422,0.224,0.197,north-northwest,2.1,No
2015/12/07,18:20,0.464,0.271,0.488,0.442,0.423,0.225,0.198,north-northwest,2.7,No
2015/12/07,18:30,0.462,0.273,0.491,0.444,0.424,0.224,0.199,north-northwest,2.0,No
2015/12/07,18:40,0.459,0.271,0.489,0.444,0.423,0.224,0.197,northwest,1.2,No
2015/12/07,18:50,0.460,0.271,0.489,0.443,0.423,0.225,0.197,northwest,0.9,No
2015/12/07,19:00,0.463,0.271,0.488,0.443,0.424,0.224,0.198,-,CALM,No
2015/12/07,19:10,0.462,0.273,0.491,0.443,0.425,0.224,0.196,north-northwest,0.8,No
2015/12/07,19:20,0.462,0.271,0.491,0.445,0.421,0.225,0.197,west-northwest,0.7,No
2015/12/07,19:30,0.462,0.272,0.490,0.443,0.421,0.225,0.197,-,CALM,No
2015/12/07,19:40,0.461,0.272,0.490,0.444,0.424,0.225,0.197,south-southwest,0.6,No
2015/12/07,19:50,0.460,0.272,0.491,0.443,0.423,0.225,0.198,south-southwest,0.8,No
2015/12/07,20:00,0.462,0.272,0.490,0.444,0.422,0.224,0.199,south-southwest,1.0,No
2015/12/07,20:10,0.462,0.272,0.489,0.441,0.423,0.225,0.198,northwest,1.4,No
2015/12/07,20:20,0.461,0.271,0.490,0.445,0.423,0.225,0.199,west-northwest,1.2,No
2015/12/07,20:30,0.462,0.274,0.491,0.444,0.423,0.224,0.197,west,1.9,No
2015/12/07,20:40,0.459,0.271,0.489,0.443,0.421,0.225,0.196,west,3.4,No
2015/12/07,20:50,0.463,0.272,0.489,0.442,0.423,0.223,0.197,west-southwest,2.9,No
2015/12/07,21:00,0.460,0.272,0.490,0.444,0.424,0.225,0.197,west-southwest,3.7,No
2015/12/07,21:10,0.462,0.271,0.490,0.443,0.421,0.225,0.198,west,3.7,No
2015/12/07,21:20,0.461,0.272,0.489,0.445,0.422,0.224,0.198,west,4.3,No
2015/12/07,21:30,0.462,0.272,0.490,0.441,0.422,0.225,0.198,west-northwest,3.9,No
2015/12/07,21:40,0.462,0.272,0.490,0.444,0.425,0.224,0.197,north-northwest,2.3,No
2015/12/07,21:50,0.462,0.271,0.489,0.443,0.423,0.224,0.197,east-northeast,2.0,No
2015/12/07,22:00,0.459,0.270,0.488,0.444,0.422,0.223,0.197,east-northeast,1.2,No
2015/12/07,22:10,0.461,0.271,0.490,0.442,0.424,0.225,0.198,north,1.9,No
2015/12/07,22:20,0.462,0.272,0.489,0.444,0.424,0.224,0.197,north-northwest,2.1,No
2015/12/07,22:30,0.460,0.272,0.489,0.444,0.421,0.224,0.197,north-northwest,0.8,No
2015/12/07,22:40,0.462,0.271,0.490,0.444,0.421,0.225,0.198,north-northwest,2.4,No
2015/12/07,22:50,0.463,0.271,0.492,0.442,0.422,0.225,0.197,north-northwest,1.2,No
2015/12/07,23:00,0.462,0.273,0.489,0.443,0.423,0.224,0.196,northwest,2.5,No
2015/12/07,23:10,0.460,0.272,0.489,0.444,0.422,0.225,0.197,north-northwest,2.5,No
2015/12/07,23:20,0.459,0.272,0.489,0.444,0.422,0.225,0.197,north,2.5,No
2015/12/07,23:30,0.462,0.272,0.489,0.443,0.421,0.225,0.197,north-northwest,2.0,No
2015/12/07,23:40,0.461,0.272,0.492,0.442,0.423,0.224,0.197,north-northwest,3.1,No
2015/12/07,23:50,0.460,0.271,0.490,0.442,0.425,0.223,0.197,northwest,4.2,No
